Other Surface Observations
Issued by NWS

Home | Current Version | Previous Version | Text Only | Print | Product List | Glossary On
Versions: 1 2 3 4 5 6 7 8 9 10 11 12 13 14 15 16 17 18 19 20 21 22 23 24 25 26 27 28 29 30 31 32 33 34 35 36 37 38 39 40 41 42 43 44 45 46 47 48 49 50
247
SXUS52 KTAE 260218
OSOTAE
OSOTAE
North Florida/South Alabama/Southwest Georgia Weather Roundup
National Weather Service Tallahassee Florida
900 PM EST SUN FEB 25 2018

Note: "fair" indicates few or no clouds below 12,000 feet with no
significant weather and/or obstructions to visibility.

!FLZ017-115-028-034-025-260300
...North Florida...

CITY           SKY/WX    TMP DP  RH WIND       PRES   REMARKS
TALLAHASSEE    CLOUDY    66  64  93 N8        30.14R
APALACHICOLA   FAIR      65  65 100 CALM      30.12S
PERRY          CLOUDY    69  65  85 CALM      30.15S
CROSS CITY     FAIR      66 N/A N/A S3        30.19S
JACKSONVILLE   CLOUDY    69  67  93 NE7       30.15S
$$

!FLZ112-006-005-002-011-260300
...Florida Panhandle...

CITY           SKY/WX    TMP DP  RH WIND       PRES   REMARKS
MARIANNA       FAIR      64  58  80 E8        30.14R
BONIFAY        NOT AVBL
PANAMA CITY NW MOCLDY    68  60  75 NE9       30.12S
TYNDALL AFB    FAIR      66  63  92 NE7       30.13R
TYND DRONE APT MOCLDY    64  63  94 E7        30.13S
DE FUNIAK SPR  FAIR      66  57  72 E9        30.13F
EGLIN AFB      PTCLDY    69  57  65 E8        30.11R
DESTIN         FAIR      72  59  63 E6        30.11F
HURLBURT       PTCLDY    68  59  73 NE6       30.10S
CRESTVIEW      FAIR      63  58  83 CALM      30.14R
PENSACOLA      MOCLDY    69  58  67 E7        30.10R
$$

!ALZ063-066-260300
...South Alabama...

CITY           SKY/WX    TMP DP  RH WIND       PRES   REMARKS
DOTHAN         FAIR      65  54  67 E5        30.17S
OZARK CAIRNS   MOCLDY    65  56  73 CALM        N/A
FT RUCKER HELI MOCLDY    62  57  84 CALM      30.14R
RUCKER HELI 3    N/A    N/A N/A N/A MISG        N/A
RUCKER HELI 2  CLOUDY    65  56  74 E5        30.13R
FLORALA APT    CLOUDY    63  56  78 CALM      30.16R
ANDALUSIA      CLOUDY    68  56  65 E6        30.13S
TROY           CLOUDY    64  58  80 NE3       30.16S
EUFALA         MOCLDY    65  58  78 N5        30.15S
MOBILE         FAIR      64  59  83 E6        30.10S
$$

!GAZ120>161-260300
...Southwest and South Central Georgia...

CITY           SKY/WX    TMP DP  RH WIND       PRES   REMARKS
THOMASVILLE    CLOUDY   N/A N/A N/A N5        30.17R
BAINBRIDGE     CLOUDY    63  63 100 NE9       30.17S
MOODY AFB      MOCLDY    64  61  92 NE7       30.15R
VALDOSTA       CLOUDY    63  63 100 CALM      30.15S
MOULTRIE       CLOUDY    63  61  94 NE6       30.17R
BLAKELY        CLOUDY    68  59  73 SE5       30.16S
ALBANY         LGT RAIN  62  61  96 E7        30.19R
TIFTON         CLOUDY    62  59  90 N3        30.17R
FITZGERALD     CLOUDY    62  60  93 N3        30.18F
CORDELE        CLOUDY    69  59  70 CALM      30.19R
AMERICUS       CLOUDY    63  54  72 SE6       30.18F
HOMERVILLE     FAIR      63  59  88 CALM      30.17R
$$

!GMZ750-755-770-775-260300
...Coastal and Buoy Obs...

STATION/POSITION TIME  TEMP    WIND        PRES    VSBY  WAVE
                       AIR SEA DIR/SP/G                  HT/PER
                 (UTC) (F)     (DEG/KT/KT) (MB)    (MI)  (FT/S)
KEATON BEACH     0200   70     320/  3/  6 1021.0S
CEDAR KEY        0200   72     230/  4/  5 1021.3R
C TOWER          0200   69     150/ 10/ 11 1020.6R
APALACHICOLA BUO NOT AVBL
PANAMA CITY BUOY 0150   76 75  170/  8/ 10 1019.0R         3/ 5
MOBILE BUOY      0200   71      80/ 16/ 19 1018.3
ORANGE BCH AL BU NOT AVBL
$$




USA.gov is the U.S. government's official web portal to all federal, state and local government web resources and services.